Regional Weather Roundup
Issued by NWS

Home | Current Version | Previous Version | Text Only | Print | Product List | Glossary On
Versions: 1 2 3 4 5 6 7 8 9 10 11 12 13 14 15 16 17 18 19 20 21 22 23 24 25 26 27 28 29 30 31 32 33 34 35 36 37 38 39 40 41 42 43 44 45 46 47 48 49 50
000
ASUS43 KMPX 202310
RWRMN
WEATHER ROUNDUP FOR MINNESOTA
NATIONAL WEATHER SERVICE TWIN CITIES/CHANHASSEN MN
500 PM CST SAT JAN 20 2018


NOTE: "FAIR" INDICATES FEW OR NO CLOUDS BELOW 12,000 FEET WITH NO
SIGNIFICANT WEATHER AND/OR OBSTRUCTIONS TO VISIBILITY. N/A MEANS
CURRENT SKY AND/OR WEATHER CONDITIONS ARE NOT AVAILABLE.

MNZ060>063-068>070-210000-
   Twin Cities Metro

CITY           SKY/WX    TMP DP  RH WIND       PRES   REMARKS
TWIN CITIES    CLOUDY    41  32  70 SW3       29.90R
ST PAUL        CLOUDY    38  32  79 CALM      29.91R
CRYSTAL        CLOUDY    40  29  64 W3        29.90R
BLAINE         CLOUDY    41  32  70 W3        29.90R
LAKEVILLE        N/A     37  30  75 CALM      29.90R
EDEN PRAIRIE   CLOUDY    40  32  73 SW3       29.89R
SOUTH ST PAUL  MOCLDY    38  32  76 CALM      29.90R
LAKE ELMO      CLOUDY    36  32  87 CALM      29.91R
$$
MNZ001>005-007-008-013>017-022>024-027-028-210000-
   Northwest Minnesota

CITY           SKY/WX    TMP DP  RH WIND       PRES   REMARKS
BEMIDJI        FAIR      31  24  74 W7        29.84R WCI  25
HALLOCK        FAIR      27  25  93 SE12      29.82R WCI  16
ROSEAU         FAIR      30  25  80 SW6       29.82R WCI  24
WARROAD        FAIR      32  27  80 SW7       29.82R WCI  26
THIEF RVR FALL FAIR      27  23  85 SW9       29.85R WCI  18
CROOKSTON      FAIR      28  27  93 SW8       29.87R WCI  20
FOSSTON        FAIR      28  25  86 S7        29.86R WCI  21
DETROIT LAKES  FAIR      34  30  86 CALM      29.87S
MOORHEAD       FAIR      36  30  80 SW3       29.88S
PARK RAPIDS    FAIR      28  22  78 W3        29.84R
MAHNOMEN       FAIR      31  28  86 SW6       29.86R WCI  25
$$
MNZ006-009>011-018-025>026-210000-
   North Central Minnesota

CITY           SKY/WX    TMP DP  RH WIND       PRES   REMARKS
BAUDETTE       FAIR      34  26  72 SW5       29.79R WCI  30
FLAG ISLAND    FAIR      23  21  93 S6        29.80R WCI  16
INTL FALLS     FAIR      29  23  78 CALM      29.80R
WASKISH        FAIR      30  25  80 SW5       29.83R WCI  25
BIG FORK       FAIR      30  25  80 CALM      29.82R
LONGVILLE      FAIR      34  27  75 SW3       29.85R
GRAND RAPIDS   FAIR      30  26  85 CALM      29.86R
CRANE LAKE     FAIR      28  27  93 CALM      29.84R
ORR            FAIR      34  27  75 CALM      29.80R
COOK           MOCLDY    30  27  86 CALM      29.83R
WALKER         FAIR      35  25  68 W3        29.84R
$$
MNZ012-019>021-037-210000-
   Northeast Minnesota

CITY           SKY/WX    TMP DP  RH WIND       PRES   REMARKS
DULUTH         FAIR      36  28  73 W6        29.83R
HIBBING        FAIR      29  26  89 CALM      29.83R
EVELETH        FAIR      28  24  86 CALM      29.84R
DULUTH HARBOR  FAIR      39  30  70 SW8       29.86S
TWO HARBORS    FAIR      39  30  70 SW3       29.82R
GRAND MARAIS     N/A     35  33  92 W3        29.86R
G MARAIS ARPRT FAIR      32  25  74 CALM      29.82R
$$
MNZ029>031-032-039>041-046>048-054>057-064-210000-
   West Central Minnesota

CITY           SKY/WX    TMP DP  RH WIND       PRES   REMARKS
FERGUS FALLS   FAIR      36  30  80 W3        29.87S
WHEATON        CLOUDY    41  28  60 CALM      29.91S
MORRIS         CLOUDY    39  30  70 N5        29.89R
ALEXANDRIA     FAIR      37  30  75 W6        29.89R
ELBOW LAKE     FAIR      37  31  81 CALM      29.89S
WADENA         FAIR      36  28  75 W6        29.87R
GLENWOOD       FAIR      37  30  75 W3        29.89S
APPLETON       CLOUDY    43  30  61 NW3       29.90R
BENSON         CLOUDY    39  30  70 N3        29.91S
ORTONVILLE     PTCLDY    39  28  65 CALM      29.89S
MADISON        PTCLDY    45  30  57 CALM      29.90R
WILLMAR        FAIR      37  30  75 NW5       29.92R
$$
MNZ033>034-036-042>043-049>051-058-059-210000-
   Central Minnesota

CITY           SKY/WX    TMP DP  RH WIND       PRES   REMARKS
ST CLOUD       MOCLDY    36  30  79 SW6       29.89R
SAUK CENTRE      N/A     36  31  81 CALM      29.89R
PAYNESVILLE    MOCLDY    36  32  85 CALM      29.90S
AITKIN         FAIR      36  27  69 SW5       29.86R
PINE RIVER     FAIR      34  27  75 SW3       29.90R
BRAINERD       FAIR      38  26  62 W7        29.87R
STAPLES        FAIR      36  27  69 CALM      29.87S
LONG PRAIRIE   FAIR      36  28  75 SW5       29.89R HAZE
LITTLE FALLS   FAIR      36  27  69 CALM      29.88F
LITCHFIELD     CLOUDY    39  32  75 CALM      29.90S
BUFFALO        CLOUDY    38  31  74 W5        29.91R
MAPLE LAKE     CLOUDY    39  32  75 MISG      29.90S
HUTCHINSON     MOCLDY    39  32  76 NW6       29.91R
$$
MNZ037-044-045-052-053-210000-
   East Central Minnesota

CITY           SKY/WX    TMP DP  RH WIND       PRES   REMARKS
PRINCETON      FAIR      37  30  75 CALM      29.90R
MORA           FAIR      36  28  75 CALM      29.89R
CAMBRIDGE        N/A     39  28  65 SW3       29.90R
RUSH CITY      FAIR      36  30  79 CALM      29.89R
MOOSE LAKE     FAIR      39  28  65 SW3       29.84R
HINCKLEY       FAIR      36  32  87 CALM      29.88R
CLOQUET        FAIR      37  27  65 CALM      29.84S
MCGREGOR       FAIR      36  30  80 SW3       29.87R
$$
MNZ071>073-080-081-089-090-097-098-210000-
   Southwest Minnesota

CITY           SKY/WX    TMP DP  RH WIND       PRES   REMARKS
MONTEVIDEO     CLOUDY    39  28  65 NE3       29.90S
GRANITE FALLS  CLOUDY    43  32  65 NW7       29.91S
CANBY          CLOUDY    43  29  57 CALM      29.91R
MARSHALL       PTCLDY    43  29  57 N3        29.91R
REDWOOD FALLS  MOCLDY    42  31  64 CALM      29.89R
OLIVIA         CLOUDY    39  32  75 N5        29.89S
PIPESTONE      CLOUDY    37  32  81 CALM      29.88S
WINDOM         PTCLDY    37  21  52 N3        29.90R
JACKSON        PTCLDY    37  32  81 N6        29.89R
TRACY          CLOUDY    42  32  66 CALM      29.90R
SLAYTON        CLOUDY    38  32  79 NW3       29.90R
$$
MNZ065>067-074>077-082>085-091>093-210000-
   South Central Minnesota

CITY           SKY/WX    TMP DP  RH WIND       PRES   REMARKS
MANKATO        FAIR      40  32  73 CALM      29.91R
NEW ULM        PTCLDY    39  30  70 CALM      29.90S
ST JAMES       PTCLDY    39  34  81 CALM      29.92R
FAIRMONT       MOCLDY    38  34  85 N6        29.90R
GLENCOE        FAIR      41  34  75 CALM      29.90R
FARIBAULT      FAIR      37  32  81 CALM      29.91R
OWATONNA       FAIR      36  32  87 CALM      29.90R
WASECA         FAIR      36  34  93 CALM      29.91S
ALBERT LEA     FAIR      37  34  87 N5        29.90R
$$
MNZ078>079-086>088-094>096-210000-
   Southeast Minnesota

CITY           SKY/WX    TMP DP  RH WIND       PRES   REMARKS
ROCHESTER      FAIR      39  32  76 NW3       29.90R
RED WING       FAIR      36  28  75 CALM      29.91R
STANTON        FAIR      37  32  82 CALM      29.90R
DODGE CENTER   FAIR      37  32  81 CALM      29.90R
WINONA         FAIR      36  32  87 SE3       29.89R
AUSTIN         FAIR      39  32  75 CALM      29.90R
PRESTON        FAIR      39  32  75 CALM      29.90R
$$
ABBREVIATIONS USED IN REMARKS
   TC - TEMPERATURES IN CELSIUS
  WCI - WIND CHILL INDEX
   HX - HEAT INDEX
  VSB - VISIBILITY
$$



USA.gov is the U.S. government's official web portal to all federal, state and local government web resources and services.